Weather History for Hereford, TX

Change the Weather History Date:

Friday, April 19, 2013

  Actual Average (KAMA) Record (KAMA)
Temperature  
Mean Temperature 42 °F 57 °F  
Max Temperature 64 °F 72 °F 92 °F (1964)
Min Temperature 19 °F 43 °F 26 °F (2013)
Degree Days  
Heating Degree Days 24 8  
Month to date heating degree days 205  
Since 1 July heating degree days 4014  
Cooling Degree Days 0 1  
Month to date cooling degree days 5  
Year to date cooling degree days 7  
Moisture  
Dew Point 9 °F    
Average Humidity 33    
Maximum Humidity 72    
Minimum Humidity 9    
Precipitation  
Precipitation 0.00 in 0.05 in 1.03 in (1908)
Month to date precipitation 0.82  
Year to date precipitation 3.49  
Snow  
Snow 0.00 in 0.10 in 2.00 in (1893)
Month to date snowfall 0.6  
Since 1 July snowfall 17.5  
Snow Depth -    
Sea Level Pressure  
Sea Level Pressure 30.16 in    
Wind  
Wind Speed 8 mph (WSW)    
Max Wind Speed 17 mph    
Max Gust Speed 24 mph    
Visibility 10 miles    
Events      
T = Trace of Precipitation, MM = Missing Value Source: NWS Daily Summary

Daily Weather History Graph

Daily Weather History Graph

Search for Another Location

Airport:

Trip Planner

Search our weather history database for the weather conditions in past years. The results will help you decide how hot, cold, wet, or windy it might be!

Date:

Astronomy

Apr. 19, 2013 Rise Set
Actual Time 7:12 AM CDT 8:25 PM CDT
Civil Twilight 6:45 AM CDT 8:51 PM CDT
Nautical Twilight 6:14 AM CDT 9:22 PM CDT
Astronomical Twilight 5:42 AM CDT 9:55 PM CDT
Moon 2:25 PM CDT (4/19) 3:13 AM CDT (4/19)
Length of Visible Light 14h 05m
Length of Day
13h 13m
First Quarter, 62% of the Moon is Illuminated
Apr 19
First Quarter
Apr 25
Full
May 2
Last Quarter
May 9
New
May 17
First Quarter

Hourly Weather History & Observations

Time (CDT) Temp. Windchill Dew Point Humidity Pressure Visibility Wind Dir Wind Speed Gust Speed Precip Events Conditions
12:15 AM 27.5 °F 20.2 °F 11.1 °F 50% 30.22 in 10.0 mi NNE 6.9 mph - N/A   Clear
12:35 AM 28.2 °F 23.1 °F 11.1 °F 49% 30.22 in 10.0 mi NNE 4.6 mph - N/A   Clear
12:55 AM 27.3 °F 22.0 °F 12.2 °F 53% 30.22 in 10.0 mi NNE 4.6 mph - N/A   Clear
1:15 AM 25.7 °F - 11.5 °F 55% 30.22 in 10.0 mi Calm Calm - N/A   Clear
1:35 AM 23.9 °F 19.5 °F 10.4 °F 56% 30.22 in 10.0 mi North 3.5 mph - N/A   Clear
1:55 AM 23.9 °F 16.8 °F 11.5 °F 59% 30.23 in 10.0 mi North 5.8 mph - N/A   Clear
2:15 AM 23.7 °F 15.6 °F 11.7 °F 60% 30.23 in 10.0 mi North 6.9 mph - N/A   Clear
2:35 AM 23.9 °F - 11.8 °F 60% 30.23 in 10.0 mi Calm Calm - N/A   Clear
2:55 AM 22.6 °F 18.0 °F 12.4 °F 65% 30.23 in 10.0 mi NW 3.5 mph - N/A   Clear
3:15 AM 22.1 °F 14.7 °F 12.9 °F 68% 30.23 in 10.0 mi WNW 5.8 mph - N/A   Clear
3:35 AM 19.6 °F 11.7 °F 11.1 °F 70% 30.23 in 10.0 mi West 5.8 mph - N/A   Clear
3:55 AM 23.0 °F 13.9 °F 13.1 °F 66% 30.24 in 10.0 mi WSW 8.1 mph - N/A   Clear
4:15 AM 24.4 °F 16.5 °F 13.8 °F 64% 30.24 in 10.0 mi WSW 6.9 mph - N/A   Clear
4:35 AM 22.8 °F 12.9 °F 12.2 °F 64% 30.24 in 10.0 mi West 9.2 mph - N/A   Clear
4:55 AM 22.1 °F 12.0 °F 12.7 °F 67% 30.24 in 10.0 mi West 9.2 mph - N/A   Clear
5:15 AM 21.7 °F 11.5 °F 12.2 °F 67% 30.24 in 10.0 mi West 9.2 mph - N/A   Clear
5:55 AM 20.3 °F 9.8 °F 11.7 °F 69% 30.24 in 10.0 mi West 9.2 mph - N/A   Clear
6:15 AM 20.3 °F 10.6 °F 12.2 °F 71% 30.24 in 10.0 mi West 8.1 mph - N/A   Clear
6:35 AM 19.9 °F 9.3 °F 12.4 °F 72% 30.24 in 10.0 mi West 9.2 mph - N/A   Clear
6:55 AM 20.8 °F 11.2 °F 12.9 °F 71% 30.24 in 10.0 mi WNW 8.1 mph - N/A   Clear
7:15 AM 21.9 °F 12.5 °F 13.5 °F 70% 30.24 in 10.0 mi West 8.1 mph - N/A   Clear
7:35 AM 21.9 °F 12.5 °F 13.6 °F 70% 30.26 in 10.0 mi West 8.1 mph - N/A   Clear
7:55 AM 24.4 °F 16.5 °F 13.8 °F 64% 30.26 in 10.0 mi West 6.9 mph - N/A   Clear
8:15 AM 27.5 °F 18.0 °F 15.6 °F 61% 30.26 in 10.0 mi West 10.4 mph - N/A   Clear
8:35 AM 31.6 °F 23.7 °F 16.5 °F 54% 30.26 in 10.0 mi West 9.2 mph - N/A   Clear
8:55 AM 36.0 °F 29.0 °F 17.2 °F 47% 30.26 in 10.0 mi WSW 9.2 mph - N/A   Clear
9:15 AM 38.5 °F 31.6 °F 17.2 °F 42% 30.26 in 10.0 mi WSW 10.4 mph - N/A   Clear
9:55 AM 43.5 °F 36.4 °F 14.4 °F 31% 30.26 in 10.0 mi WSW 15.0 mph 19.6 mph N/A   Clear
10:15 AM 45.3 °F 39.0 °F 14.9 °F 29% 30.26 in 10.0 mi WSW 13.8 mph - N/A   Clear
10:35 AM 47.3 °F - 14.5 °F 27% 30.26 in 10.0 mi West 16.1 mph 23.0 mph N/A   Clear
10:55 AM 49.3 °F - 14.5 °F 25% 30.26 in 10.0 mi West 16.1 mph 24.2 mph N/A   Clear
11:15 AM 51.3 °F - 14.4 °F 23% 30.25 in 10.0 mi West 17.3 mph 24.2 mph N/A   Clear
11:35 AM 52.5 °F - 12.6 °F 20% 30.25 in 10.0 mi West 15.0 mph 23.0 mph N/A   Clear
11:55 AM 53.2 °F - 9.9 °F 18% 30.24 in 10.0 mi West 11.5 mph - N/A   Clear
12:15 PM 54.0 °F - 6.6 °F 15% 30.24 in 10.0 mi West 6.9 mph 16.1 mph N/A   Clear
12:35 PM 54.5 °F - 7.7 °F 15% 30.23 in 10.0 mi West 4.6 mph - N/A   Clear
12:55 PM 55.6 °F - 7.9 °F 15% 30.22 in 10.0 mi WSW 12.7 mph 19.6 mph N/A   Clear
1:15 PM 56.1 °F - 8.1 °F 15% 30.21 in 10.0 mi SW 4.6 mph - N/A   Clear
1:35 PM 57.0 °F - 7.9 °F 14% 30.20 in 10.0 mi SW 4.6 mph - N/A   Clear
1:55 PM 57.6 °F - 7.7 °F 14% 30.18 in 10.0 mi Calm Calm - N/A   Clear
2:15 PM 57.6 °F - 7.7 °F 14% 30.17 in 10.0 mi Calm Calm - N/A   Clear
2:35 PM 59.0 °F - 7.3 °F 13% 30.17 in 10.0 mi SSW 5.8 mph 18.4 mph N/A   Clear
2:55 PM 59.9 °F - 6.8 °F 12% 30.16 in 10.0 mi SSW 8.1 mph 16.1 mph N/A   Clear
3:15 PM 59.9 °F - 6.3 °F 12% 30.15 in 10.0 mi SW 10.4 mph 23.0 mph N/A   Clear
3:35 PM 62.1 °F - 5.9 °F 11% 30.14 in 10.0 mi WSW 12.7 mph 23.0 mph N/A   Clear
3:55 PM 61.9 °F - 4.5 °F 10% 30.13 in 10.0 mi SSW 10.4 mph 18.4 mph N/A   Clear
4:15 PM 61.7 °F - 2.7 °F 9% 30.12 in 10.0 mi WSW 8.1 mph 20.7 mph N/A   Clear
4:35 PM 63.1 °F - 2.3 °F 9% 30.10 in 10.0 mi South 8.1 mph 19.6 mph N/A   Clear
4:55 PM 63.1 °F - 1.8 °F 9% 30.09 in 10.0 mi WSW 11.5 mph - N/A   Clear
5:15 PM 64.4 °F - 2.8 °F 9% 30.07 in 10.0 mi SW 15.0 mph 20.7 mph N/A   Clear
5:35 PM 63.9 °F - 3.2 °F 9% 30.06 in 10.0 mi WSW 5.8 mph 16.1 mph N/A   Clear
5:55 PM 63.7 °F - 3.7 °F 9% 30.05 in 10.0 mi SW 13.8 mph 18.4 mph N/A   Clear
6:15 PM 64.4 °F - 4.1 °F 9% 30.05 in 10.0 mi SW 11.5 mph 19.6 mph N/A   Clear
6:35 PM 64.8 °F - 3.7 °F 9% 30.04 in 10.0 mi WSW 15.0 mph 19.6 mph N/A   Clear
6:55 PM 63.9 °F - 3.2 °F 9% 30.04 in 10.0 mi SW 13.8 mph 20.7 mph N/A   Clear
7:15 PM 63.9 °F - 2.8 °F 9% 30.03 in 10.0 mi WSW 12.7 mph 16.1 mph N/A   Clear
7:35 PM 62.8 °F - 1.4 °F 9% 30.02 in 10.0 mi SW 9.2 mph - N/A   Clear
7:55 PM 61.0 °F - 1.6 °F 9% 30.02 in 10.0 mi SW 10.4 mph - N/A   Clear
8:15 PM 59.5 °F - 3.0 °F 10% 30.02 in 7.0 mi SSW 6.9 mph - N/A   Clear
8:35 PM 53.8 °F - 4.3 °F 14% 30.02 in 3.0 mi SSW 8.1 mph - N/A   Haze
8:55 PM 48.9 °F - 3.4 °F 16% 30.02 in 10.0 mi SSW 9.2 mph - N/A   Clear
9:15 PM 50.0 °F - 3.7 °F 15% 30.02 in 10.0 mi South 9.2 mph - N/A   Clear
9:35 PM 47.3 °F - 5.0 °F 18% 30.02 in 10.0 mi South 8.1 mph - N/A   Clear
9:55 PM 48.4 °F - 7.7 °F 19% 30.02 in 10.0 mi South 8.1 mph - N/A   Clear
10:15 PM 47.1 °F - 8.6 °F 21% 30.02 in 10.0 mi South 8.1 mph - N/A   Clear
10:35 PM 49.5 °F - 9.0 °F 19% 30.02 in 10.0 mi South 9.2 mph - N/A   Clear
10:55 PM 47.8 °F - 9.1 °F 21% 30.02 in 10.0 mi South 6.9 mph - N/A   Clear
11:15 PM 52.0 °F - 6.3 °F 16% 30.02 in 10.0 mi SSW 16.1 mph - N/A   Clear
11:35 PM 50.4 °F - 7.3 °F 18% 30.01 in 10.0 mi SSW 11.5 mph - N/A   Clear
11:55 PM 48.9 °F - 8.2 °F 19% 30.00 in 10.0 mi SSW 12.7 mph - N/A   Clear